Location: Chuathbaluk
(61.5726°N, 159.2454°W)
Time: 17:37:42
(UTC+00:00)

ZACube-1 - Pass Details

Date: 26 January 2021
Orbit: 583 x 666 km, 97.6° (Epoch: 04 March)

Event Time Altitude Azimuth Distance (km) Brightness Sun altitude
Rises 18:19:03 0° 16° (NNE) 3,026 ? -6.2°
Reaches altitude 10° 18:21:52 10° 358° (N) 2,106 ? -5.9°
Maximum altitude 18:24:58 18° 316° (NW) 1,613 ? -5.6°
Drops below altitude 10° 18:28:03 10° 273° (W) 2,083 ? -5.2°
Sets 18:30:50 0° 255° (WSW) 2,980 ? -5.0°
